Regional Weather Roundup
Issued by NWS

Home | Current Version | Previous Version | Graphics & Text | Print | Product List | Glossary On
Versions: 1 2 3 4 5 6 7 8 9 10 11 12 13 14 15 16 17 18 19 20 21 22 23 24 25 26 27 28 29 30 31 32 33 34 35 36 37 38 39 40 41 42 43 44 45 46 47 48 49 50
000
ASUS45 KABQ 221510
RWRNM
WEATHER ROUNDUP FOR NEW MEXICO
NATIONAL WEATHER SERVICE ALBUQUERQUE NM
900 AM MDT FRI AUG 22 2014

NOTE: "FAIR" MEANS FEW OR NO CLOUDS BELOW 12,000 FEET AGL WITH NO
       SIGNIFICANT WEATHER OR OBSTRUCTIONS TO VISION.

      THIS PRODUCT IS RELEASED AS TWO VERSIONS.  ONE VERSION NEAR
      THE TOP OF THE HOUR CONTAINING PRELIMINARY DATA FROM ALBUQUERQUE
      AND OTHER STATIONS.  A FINAL VERSION WITH ADDITIONAL DATA IS
      ISSUED ABOUT 10 MINUTES AFTER THE HOUR.

NMZ501-503-504-510>518-221600-
NORTHWEST PLATEAU/NORTHCENTRAL MOUNTAINS

CITY           SKY/WX    TMP DP  RH WIND       PRES   REMARKS
FARMINGTON     SUNNY     62  56  80 E3        30.20R
LOS ALAMOS     CLOUDY    58  49  71 CALM      30.32R
SANTA FE       LGT RAIN  61  52  72 S8        30.29R
TAOS           CLOUDY    55  45  67 NE6       30.34R
ANGEL FIRE     CLOUDY    57  40  54 SW12G17   30.38R

$$
NMZ402-403-502-505>509-221600-
WESTCENTRAL MOUNTAINS/SOUTHWEST MOUNTAINS

CITY           SKY/WX    TMP DP  RH WIND       PRES   REMARKS
GALLUP         MOSUNNY   57  53  86 CALM      30.27R
SILVER CITY    CLOUDY    63  59  88 E6        30.23F

$$
NMZ407-409-411-412-221600-
SOUTHERN DESERTS

CITY           SKY/WX    TMP DP  RH WIND       PRES   REMARKS
LORDSBURG      CLOUDY    70  54  56 W3        30.15S
DEMING         CLOUDY    67  61  81 E6        30.16S
LAS CRUCES     CLOUDY    65  63  93 NW6       30.16S
HOLLOMAN AFB   PTSUNNY   66  66 100 N10       30.11F
ALAMOGORDO     LGT RAIN  66  66 100 NE9       30.13F
T OR C         CLOUDY    64  62  93 E5        30.19F

$$
NMZ519>523-221600-
CENTRAL VALLEYS/CENTRAL HIGHLANDS

CITY           SKY/WX    TMP DP  RH WIND       PRES   REMARKS
ALBUQUERQUE    LGT RAIN  62  57  83 S5        30.26R
DOUBLE EAGLE   RAIN      59  55  88 S3        30.28R
MORIARTY ARPT  RAIN      60  53  77 W9        30.28R
CLINES CORNERS CLOUDY    59  53  80 W22       30.28R
BELEN          DRIZZLE   61  59  94 SE8       30.24R
SOCORRO        LGT RAIN  61  60  96 S7        30.22S

$$
NMZ524>526-539-540-221600-
SOUTHCENTRAL MOUNTAINS

CITY           SKY/WX    TMP DP  RH WIND       PRES   REMARKS
RUIDOSO        PTSUNNY   59  55  88 NW9       30.30S

$$
NMZ527>531-221600-
NORTHEAST HIGHLANDS/NORTHEAST PLAINS

CITY           SKY/WX    TMP DP  RH WIND       PRES   REMARKS
LAS VEGAS      PTSUNNY   66  45  46 SW17      30.25R
RATON          PTSUNNY   69  46  43 CALM      30.19R
CLAYTON        PTSUNNY   74  50  42 SW10      30.10S

$$
NMZ532>537-221600-
EASTCENTRAL PLAINS

CITY           SKY/WX    TMP DP  RH WIND       PRES   REMARKS
TUCUMCARI      MOSUNNY   82  58  43 SW20      30.06R
CANNON AFB     SUNNY     81  59  47 SW13      30.10F
CLOVIS AIRPORT   N/A     81  61  50 SW12      30.12F

$$
NMZ028-029-538-221600-
SOUTHEAST PLAINS

CITY           SKY/WX    TMP DP  RH WIND       PRES   REMARKS
ROSWELL        MOSUNNY   83  56  39 NW9       30.06S
ARTESIA        SUNNY     81  55  41 SW14      30.08S
CARLSBAD       MOSUNNY   81  58  45 W8        30.07R
HOBBS          SUNNY     79  59  50 SW7       30.12S


$$



USA.gov is the U.S. government's official web portal to all federal, state and local government web resources and services.